Starlink 4493

operational
NORAD ID: 53533 Int'l Des: 2022-101 Owner: SPXS Country: US Constellation: starlink
LEOCIRCULAR

Starlink 4493について

説明を読み込み中...

リアルタイム位置

3D地球を読み込み中...

次回通過

高度履歴

Altitude vs Time

uPlot chart will show altitude changes over time

軌道要素

1 53533U 22101G 25257.40063580 .00000688 00000-0 61316-4 0 9995
2 53533 53.2183 145.5060 0001408 91.4261 268.6892 15.08840113169558
Epoch: Sep 14, 2025 • Age: 22 hours

現在のステータス

高度 545.3 km
速度 7.59 km/s
衛星直下点 -18.55°S, 15.85°E
打ち上げ日 Aug 19, 2022
運用期間 3 years
タイプ internet

技術仕様

分類 Payload
質量 300.00 kg
乾燥質量 290.00 kg
総質量 300.00 kg
長さ 0.20 m
直径 2.80 m
スパン 9.00 m
形状 Box + pan
製造者 SPXS
バスタイプ Starlink
フェーズステータス In Orbit
所有者/国 SPXS/US

大規模コンステレーション

Loading constellations...